This is the latest recevied weather packets stored in our database for station/object LRSM. If no packets are shown the sender has not sent any weather packets the latest 10 day(s).
| Time | Temp. | Humidity | Pressure | Rain* | Wind** | Luminosity | Snow |
|---|---|---|---|---|---|---|---|
| 1777611812 | 5° C | 53% | 1026 hPa | - | - | - | - |
| 1777610912 | 2.78° C | 56% | 1026 hPa | - | - | - | - |
| 1777610012 | 2.78° C | 56% | 1026 hPa | - | - | - | - |
| 1777609112 | 2.22° C | 60% | 1026 hPa | - | - | - | - |
| 1777608213 | 2.22° C | 60% | 1026 hPa | - | - | - | - |
| 1777607312 | 1.11° C | 65% | 1026 hPa | - | - | - | - |
| 1777606412 | 1.11° C | 65% | 1026 hPa | - | - | - | - |
| 1777605512 | 0° C | 69% | 1026 hPa | - | - | - | - |
| 1777604613 | 0° C | 69% | 1026 hPa | - | - | - | - |
| 1777603713 | 0° C | 64% | 1026 hPa | - | - | - | - |
| 1777602812 | 0° C | 64% | 1026 hPa | - | - | - | - |
| 1777601912 | 1.11° C | 65% | 1026 hPa | - | - | - | - |
| 1777601012 | 1.11° C | 65% | 1026 hPa | - | - | - | - |
| 1777600113 | 1.11° C | 60% | 1026 hPa | - | - | - | - |
| 1777599212 | 1.11° C | 60% | 1026 hPa | - | - | - | - |
| 1777598313 | 2.22° C | 56% | 1026 hPa | - | - | - | - |
| 1777597413 | 2.22° C | 56% | 1026 hPa | - | - | - | - |
| 1777596513 | 2.22° C | 56% | 1026 hPa | - | - | - | - |
| 1777595612 | 2.22° C | 56% | 1026 hPa | - | - | - | - |
| 1777594712 | 2.78° C | 52% | 1026 hPa | - | - | - | - |
| 1777593812 | 2.78° C | 52% | 1026 hPa | - | - | - | - |
| 1777592913 | 2.22° C | 56% | 1026 hPa | - | - | - | - |
| 1777592012 | 2.22° C | 56% | 1026 hPa | - | - | - | - |
| 1777591113 | 2.78° C | 52% | 1026 hPa | - | - | - | - |
| 1777590212 | 2.78° C | 52% | 1026 hPa | - | - | - | - |
* Rain since midnight (hover to see other rain measurements)
** Current wind speed in m/s (hover to see current wind gust speed)